Location: Six Mile Lake
(44.9000°N, 79.7170°W)
Time: 13:09:15
(UTC-04:00)

AO-109 - Pass Details

Date: 05 July 2022
Orbit: 470 x 506 km, 60.7° (Epoch: 09 August)

Event Time Altitude Azimuth Distance (km) Brightness Sun altitude
Exits shadow 04:50:11 - 244° (WSW) 1,724 ? -7.6°
Reaches altitude 10° 04:50:23 10° 245° (WSW) 1,647 ? -7.6°
Maximum altitude 04:53:54 43° 318° (NW) 686 ? -7.1°
Drops below altitude 10° 04:57:31 10° 32° (NNE) 1,678 ? -6.6°
Sets 04:59:46 0° 39° (NE) 2,571 ? -6.3°
